This demonstration page uses our WeatherBlox Daily Observations layout. Learn more.

Left ArrowRight Arrow

34.16533, -84.80231

Hourly Observations for February 14, 2022

Temp ( °F °C ) Dew Point ( °F °C ) Humidity (%) Winds ( mph kmh ) Pressure ( in mb ) Visibility ( mi km ) Precip ( " mm )
12:15 am 00:15 Clear 30 -1 16 -9 55 55 Calm 30.29 1026 10 16 0.00 0.00
12:35 am 00:35 Clear 30 -1 16 -9 55 55 Calm 30.29 1026 10 16 0.00 0.00
12:55 am 00:55 Mostly Clear 30 -1 16 -9 55 55 Calm 30.30 1026 10 16 0.00 0.00
1:15 am 01:15 Clear 30 -1 18 -8 59 59 Calm 30.30 1026 10 16 0.00 0.00
1:35 am 01:35 Clear 28 -2 18 -8 64 64 Calm 30.30 1026 10 16 0.00 0.00
1:55 am 01:55 Clear 30 -1 18 -8 59 59 WSW 3 6 30.29 1026 10 16 0.00 0.00
2:15 am 02:15 Clear 28 -2 18 -8 64 64 Calm 30.30 1026 10 16 0.00 0.00
2:35 am 02:35 Clear 28 -2 18 -8 64 64 Calm 30.31 1026 10 16 0.00 0.00
2:55 am 02:55 Clear 28 -2 18 -8 64 64 WSW 3 6 30.31 1026 10 16 0.00 0.00
3:15 am 03:15 Clear 28 -2 18 -8 64 64 W 3 6 30.30 1026 10 16 0.00 0.00
3:35 am 03:35 Clear 28 -2 18 -8 64 64 W 3 6 30.31 1026 10 16 0.00 0.00
3:55 am 03:55 Clear 28 -2 18 -8 64 64 Calm 30.31 1026 10 16 0.00 0.00
4:15 am 04:15 Clear 28 -2 18 -8 64 64 Calm 30.32 1027 10 16 0.00 0.00
4:35 am 04:35 Mostly Clear 28 -2 18 -8 64 64 SW 3 6 30.32 1027 10 16 0.00 0.00
4:55 am 04:55 Mostly Clear 27 -3 18 -8 69 69 Calm 30.34 1027 10 16 0.00 0.00
5:15 am 05:15 Clear 27 -3 18 -8 69 69 Calm 30.34 1027 10 16 0.00 0.00
5:35 am 05:35 Clear 27 -3 18 -8 69 69 Calm 30.35 1028 10 16 0.00 0.00
5:55 am 05:55 Clear 27 -3 18 -8 69 69 Calm 30.36 1028 10 16 0.00 0.00
6:15 am 06:15 Clear 27 -3 18 -8 69 69 Calm 30.36 1028 10 16 0.00 0.00
6:35 am 06:35 Mostly Clear 27 -3 19 -7 74 74 Calm 30.37 1028 10 16 0.00 0.00
6:55 am 06:55 Mostly Clear 25 -4 19 -7 80 80 Calm 30.37 1029 10 16 0.00 0.00
7:15 am 07:15 Clear 25 -4 19 -7 80 80 Calm 30.38 1029 10 16 0.00 0.00
7:35 am 07:35 Sunny 25 -4 19 -7 80 80 Calm 30.38 1029 10 16 0.00 0.00
7:55 am 07:55 Sunny 27 -3 21 -6 80 80 Calm 30.38 1029 10 16 0.00 0.00
8:15 am 08:15 Sunny 27 -3 21 -6 80 80 undefined N/A 30.38 1029 10 16 0.00 0.00
8:35 am 08:35 Sunny 28 -2 21 -6 74 74 undefined N/A 30.39 1029 10 16 0.00 0.00
8:55 am 08:55 Sunny 32 0 19 -7 60 60 Calm 30.39 1029 10 16 0.00 0.00
9:15 am 09:15 Sunny 34 1 19 -7 56 56 Calm 30.38 1029 10 16 0.00 0.00
9:35 am 09:35 Sunny 34 1 19 -7 56 56 VRB 5 7 30.38 1029 10 16 0.00 0.00
9:55 am 09:55 Sunny 36 2 19 -7 52 52 VRB 5 7 30.38 1029 10 16 0.00 0.00
10:15 am 10:15 Sunny 37 3 18 -8 45 45 W 7 11 30.39 1029 10 16 0.00 0.00
10:35 am 10:35 Sunny 39 4 19 -7 45 45 WNW 6 9 30.39 1029 10 16 0.00 0.00
10:55 am 10:55 Sunny 41 5 19 -7 42 42 WNW 7 11 30.38 1029 10 16 0.00 0.00
11:15 am 11:15 Sunny 43 6 21 -6 42 42 W 8 13 30.39 1029 10 16 0.00 0.00
11:35 am 11:35 Sunny 45 7 21 -6 39 39 VRB 6 9 30.39 1029 10 16 0.00 0.00
11:55 am 11:55 Sunny 45 7 21 -6 39 39 W 8 13 30.38 1029 10 16 0.00 0.00
12:15 pm 12:15 Sunny 46 8 19 -7 34 34 WNW 9 15 30.38 1029 10 16 0.00 0.00
12:35 pm 12:35 Sunny 48 9 19 -7 32 32 WNW 9 15 30.37 1029 10 16 0.00 0.00
12:55 pm 12:55 Sunny 48 9 19 -7 32 32 NW 8 13 30.35 1028 10 16 0.00 0.00
1:15 pm 13:15 Sunny 48 9 19 -7 32 32 W 10 17 30.34 1028 10 16 0.00 0.00
1:35 pm 13:35 Sunny 50 10 19 -7 30 30 W 9 15 30.32 1027 10 16 0.00 0.00
1:55 pm 13:55 Sunny 50 10 19 -7 30 30 Calm 30.31 1026 10 16 0.00 0.00
2:15 pm 14:15 Sunny 50 10 19 -7 30 30 W 8 13 30.30 1026 10 16 0.00 0.00
2:35 pm 14:35 Sunny 52 11 21 -6 30 30 W 9 15 30.30 1026 10 16 0.00 0.00
2:55 pm 14:55 Sunny 54 12 21 -6 28 28 VRB 5 7 30.28 1026 10 16 0.00 0.00
3:15 pm 15:15 Sunny 54 12 21 -6 28 28 W 9 15 30.28 1026 10 16 0.00 0.00
3:35 pm 15:35 Sunny 54 12 21 -6 28 28 W 12 19 30.28 1026 9 14 0.00 0.00
3:55 pm 15:55 Sunny 54 12 21 -6 28 28 WNW 7 11 30.28 1026 9 14 0.00 0.00
4:15 pm 16:15 Sunny 54 12 21 -6 28 28 W 8 13 30.28 1026 9 14 0.00 0.00
4:35 pm 16:35 Sunny 55 13 21 -6 26 26 W 8 13 30.28 1025 9 14 0.00 0.00
4:55 pm 16:55 Sunny 55 13 21 -6 26 26 W 8 13 30.28 1025 9 14 0.00 0.00
5:15 pm 17:15 Sunny 55 13 21 -6 26 26 W 8 13 30.29 1026 10 16 0.00 0.00
5:35 pm 17:35 Sunny 54 12 21 -6 28 28 W 8 13 30.29 1026 10 16 0.00 0.00
5:55 pm 17:55 Sunny 54 12 21 -6 28 28 W 7 11 30.30 1026 9 14 0.00 0.00
6:15 pm 18:15 Sunny 52 11 21 -6 30 30 W 5 7 30.31 1026 10 16 0.00 0.00
6:35 pm 18:35 Clear 52 11 21 -6 30 30 Calm 30.32 1027 10 16 0.00 0.00
6:55 pm 18:55 Mostly Clear 50 10 21 -6 32 32 Calm 30.33 1027 10 16 0.00 0.00
7:15 pm 19:15 Partly Cloudy 48 9 21 -6 34 34 Calm 30.34 1028 10 16 0.00 0.00
7:35 pm 19:35 Mostly Clear 46 8 23 -5 40 40 Calm 30.35 1028 10 16 0.00 0.00
7:55 pm 19:55 Mostly Cloudy 45 7 25 -4 46 46 Calm 30.36 1028 10 16 0.00 0.00
8:15 pm 20:15 Cloudy 43 6 25 -4 49 49 Calm 30.37 1028 10 16 0.00 0.00
8:35 pm 20:35 Mostly Cloudy 43 6 25 -4 49 49 Calm 30.37 1028 10 16 0.00 0.00
8:55 pm 20:55 Partly Cloudy 39 4 28 -2 65 65 ENE 5 7 30.39 1029 10 16 0.00 0.00
9:15 pm 21:15 Mostly Clear 39 4 28 -2 65 65 Calm 30.39 1029 10 16 0.00 0.00
9:35 pm 21:35 Mostly Clear 39 4 28 -2 65 65 Calm 30.40 1029 10 16 0.00 0.00
9:55 pm 21:55 Clear 37 3 27 -3 65 65 Calm 30.40 1029 10 16 0.00 0.00
10:15 pm 22:15 Mostly Clear 37 3 28 -2 70 70 Calm 30.40 1029 10 16 0.00 0.00
10:35 pm 22:35 Mostly Clear 36 2 27 -3 70 70 Calm 30.41 1030 10 16 0.00 0.00
10:55 pm 22:55 Mostly Clear 36 2 30 -1 81 81 Calm 30.42 1030 10 16 0.00 0.00
11:15 pm 23:15 Mostly Cloudy 34 1 30 -1 87 87 Calm 30.43 1030 10 16 0.00 0.00
11:35 pm 23:35 Partly Cloudy 34 1 30 -1 87 87 Calm 30.44 1031 10 16 0.00 0.00
11:55 pm 23:55 Mostly Cloudy 34 1 28 -2 81 81 Calm 30.44 1031 10 16 0.00 0.00

Powered by AerisWeather